Starlink 33814

operational
NORAD ID: 63582 Int'l Des: 2025-076 Owner: SPXS Country: US Constellation: starlink
LEOCIRCULAR

Starlink 33814について

説明を読み込み中...

リアルタイム位置

3D地球を読み込み中...

次回通過

高度履歴

Altitude vs Time

uPlot chart will show altitude changes over time

軌道要素

1 63582U 25076P 25257.99790167 .00025015 00000-0 91518-3 0 9993
2 63582 42.9985 233.6427 0000886 214.8346 145.2448 15.27590046 24968
Epoch: Sep 14, 2025 • Age: 24 hours

現在のステータス

高度 482.0 km
速度 7.63 km/s
衛星直下点 1.83°N, 46.85°E
打ち上げ日 Apr 14, 2025
運用期間 0.4 years
タイプ internet

技術仕様

分類 Payload
質量 575.00 kg
乾燥質量 530.00 kg
総質量 575.00 kg
長さ 0.30 m
直径 4.10 m
スパン 29.00 m
形状 Box + pan
製造者 SPXS
バスタイプ Starlink V2MO
フェーズステータス In Orbit
所有者/国 SPXS/US

大規模コンステレーション

Loading constellations...